Date String (YYYY-MM-DD hh:mm:ss) UTC,Instrument flags,absolute air pressure of the measurement (hPa),sample flow rate (lpm),inlet stack bypass flow (lpm),air temperature of the measurement (°C),ambient temperature measured by the external sensor (°C),aerosol sample conditioner tube jacket temperature (°C),OPC LED temperature (°C),internal box temperature (°C),relative humidity of the measurement (%),span deviation,mass concentration of particles derived from Lorenz-Mie calculation of OPC scattering (μg/m³),mass concentration of particles derived from Lorenz-Mie calculation of OPC scattering (μg/m³),mass concentration of particles derived from Lorenz-Mie calculation of OPC scattering (μg/m³)
DateTimeUTC,F1_M11,P_M11,Q1_M11,Q2_M11,T1_M11,T2_M11,T3_M11,T4_M11,T5_M11,U1_M11,ZSPAN_M11,X0_M11,X2_M11,X1_M11
2023-10-30 01:00:00,SystemResetWarning,0839.0,5.00,000.00,020.5,019.5,000.0,028.8,022.1,11.5,0000.4,0010.00,0008.29,0008.07
2023-10-30 01:01:00,SystemResetWarning,0838.9,5.02,000.00,020.6,020.3,000.0,028.8,022.5,11.4,-000.2,0009.99,0008.30,0008.09
2023-10-30 01:02:00,SystemResetWarning,0839.0,4.99,000.00,020.8,021.0,000.0,028.8,022.7,11.4,-001.2,0010.22,0008.31,0008.10
2023-10-30 01:03:00,SystemResetWarning,0838.9,4.99,000.00,020.8,020.9,000.0,028.9,022.6,11.3,-001.4,0010.55,0008.32,0008.12
2023-10-30 01:04:00,SystemResetWarning,0838.9,5.01,000.00,020.8,020.8,000.0,028.9,022.5,11.3,-001.4,0010.47,0008.28,0008.10
2023-10-30 01:05:00,SystemResetWarning,0838.9,5.01,000.00,020.8,020.6,000.0,029.0,022.4,11.3,-001.1,0010.41,0008.26,0008.10
2023-10-30 01:06:00,SystemResetWarning,0838.8,5.01,000.00,020.8,020.4,000.0,029.0,022.3,11.3,-000.3,0010.44,0008.26,0008.10
2023-10-30 01:07:00,SystemResetWarning,0838.9,5.00,000.00,020.8,020.2,000.0,029.0,022.2,11.3,0000.2,0010.41,0008.25,0008.09
2023-10-30 01:08:00,SystemResetWarning,0838.9,5.00,000.00,020.8,020.0,000.0,029.0,022.2,11.2,0000.4,0010.35,0008.22,0008.06
2023-10-30 01:09:00,SystemResetWarning,0838.9,4.99,000.00,020.8,019.9,000.0,029.0,022.1,11.2,0000.6,0010.24,0008.18,0008.05
2023-10-30 01:10:00,SystemResetWarning,0838.9,4.99,000.00,020.7,019.8,000.0,029.0,022.1,11.2,-000.2,0010.23,0008.18,0008.05
2023-10-30 01:11:00,SystemResetWarning,0838.9,5.00,000.00,020.7,019.7,000.0,029.0,022.1,11.2,0000.0,0010.22,0008.17,0008.04
2023-10-30 01:12:00,SystemResetWarning,0838.9,5.01,000.00,020.7,019.6,000.0,029.0,022.1,11.1,0001.1,0010.22,0008.18,0008.05
2023-10-30 01:13:00,SystemResetWarning,0838.8,5.01,000.00,020.7,019.5,000.0,029.0,022.0,11.1,0001.5,0010.27,0008.21,0008.07
2023-10-30 01:14:00,SystemResetWarning,0838.9,5.00,000.00,020.7,019.5,000.0,029.0,022.0,11.1,0002.1,0009.74,0008.23,0008.09
2023-10-30 01:15:00,SystemResetWarning,0838.9,5.00,000.00,020.6,019.4,000.0,029.0,021.9,11.1,0002.0,0009.81,0008.28,0008.14
2023-10-30 01:16:00,SystemResetWarning,0838.9,4.99,000.00,020.6,019.4,000.0,029.0,022.0,11.0,0001.8,0009.86,0008.34,0008.19
2023-10-30 01:17:00,SystemResetWarning,0838.8,5.00,000.00,020.6,019.3,000.0,029.0,021.9,11.0,0001.6,0009.93,0008.38,0008.22
2023-10-30 01:18:00,SystemResetWarning,0838.9,5.01,000.00,020.6,019.3,000.0,029.0,021.9,11.0,0001.4,0010.00,0008.43,0008.26
2023-10-30 01:19:00,SystemResetWarning,0838.9,5.01,000.00,020.6,019.7,000.0,029.0,022.2,11.0,0001.0,0010.07,0008.49,0008.31
2023-10-30 01:20:00,SystemResetWarning,0838.9,5.00,000.00,020.8,020.6,000.0,028.9,022.7,11.0,0000.7,0010.17,0008.57,0008.37
2023-10-30 01:21:00,SystemResetWarning,0838.9,4.98,000.00,020.9,021.0,000.0,029.0,022.7,10.9,0000.9,0010.23,0008.62,0008.42
2023-10-30 01:22:00,SystemResetWarning,0838.8,5.00,000.00,020.9,020.8,000.0,029.0,022.6,10.9,0000.8,0010.30,0008.67,0008.48
2023-10-30 01:23:00,SystemResetWarning,0838.8,5.00,000.00,020.9,020.6,000.0,029.1,022.5,10.9,0000.1,0010.75,0008.72,0008.53
2023-10-30 01:24:00,SystemResetWarning,0838.9,4.99,000.00,020.9,020.4,000.0,029.1,022.4,10.9,-000.3,0010.77,0008.76,0008.56
2023-10-30 01:25:00,SystemResetWarning,0838.8,5.00,000.00,020.9,020.2,000.0,029.1,022.2,10.9,0000.0,0010.80,0008.80,0008.61
2023-10-30 01:26:00,SystemResetWarning,0838.9,5.00,000.00,020.8,020.1,000.0,029.1,022.2,10.9,-000.3,0010.82,0008.83,0008.65
2023-10-30 01:27:00,SystemResetWarning,0838.9,5.00,000.00,020.8,019.9,000.0,029.1,022.2,10.9,-000.7,0010.84,0008.86,0008.69
2023-10-30 01:28:00,SystemResetWarning,0838.9,5.00,000.00,020.8,019.8,000.0,029.1,022.1,11.0,-001.0,0010.87,0008.89,0008.72
2023-10-30 01:29:00,SystemResetWarning,0838.9,5.00,000.00,020.8,019.7,000.0,029.1,022.1,11.0,-001.6,0010.87,0008.89,0008.73
2023-10-30 01:30:00,SystemResetWarning,0838.9,5.00,000.00,020.8,019.6,000.0,029.1,022.0,11.0,-001.1,0010.85,0008.88,0008.72
2023-10-30 01:31:00,SystemResetWarning,0838.9,5.00,000.00,020.7,019.6,000.0,029.1,022.0,11.0,-000.9,0010.82,0008.87,0008.71
2023-10-30 01:32:00,SystemResetWarning,0838.9,5.00,000.00,020.7,019.5,000.0,029.1,022.0,10.9,-000.5,0010.81,0008.85,0008.70
2023-10-30 01:33:00,SystemResetWarning,0838.9,4.99,000.00,020.7,019.5,000.0,029.1,022.0,11.0,-000.2,0010.84,0008.86,0008.69
2023-10-30 01:34:00,SystemResetWarning,0838.9,5.00,000.00,020.7,019.4,000.0,029.1,022.0,11.0,-000.8,0010.41,0008.82,0008.65
2023-10-30 01:35:00,SystemResetWarning,0838.9,4.99,000.00,020.6,019.4,000.0,029.1,021.9,11.0,-001.0,0010.48,0008.81,0008.64
2023-10-30 01:36:00,SystemResetWarning,0838.9,5.01,000.00,020.7,019.7,000.0,029.0,022.3,10.9,-001.6,0010.45,0008.77,0008.59
2023-10-30 01:37:00,SystemResetWarning,0839.0,5.01,000.00,020.8,020.6,000.0,029.0,022.7,10.8,-001.3,0010.41,0008.72,0008.53
2023-10-30 01:38:00,SystemResetWarning,0839.1,4.97,000.00,020.9,021.0,000.0,029.0,022.8,10.7,-000.5,0010.44,0008.71,0008.51
2023-10-30 01:39:00,SystemResetWarning,0839.1,5.00,000.00,021.0,020.9,000.0,029.1,022.6,10.6,0000.4,0010.38,0008.67,0008.47
2023-10-30 01:40:00,SystemResetWarning,0839.0,5.01,000.00,021.0,020.7,000.0,029.1,022.5,10.6,0000.9,0010.36,0008.65,0008.45
2023-10-30 01:41:00,SystemResetWarning,0839.1,5.00,000.00,020.9,020.5,000.0,029.2,022.4,10.5,-000.2,0010.35,0008.63,0008.44
2023-10-30 01:42:00,SystemResetWarning,0839.1,4.99,000.00,020.9,020.3,000.0,029.2,022.4,10.5,-000.3,0010.37,0008.63,0008.44
2023-10-30 01:43:00,SystemResetWarning,0839.1,5.00,000.00,020.9,020.1,000.0,029.2,022.3,10.5,-000.5,0010.37,0008.61,0008.41
2023-10-30 01:44:00,SystemResetWarning,0839.1,4.99,000.00,020.9,020.0,000.0,029.2,022.3,10.4,-000.6,0010.33,0008.57,0008.38
2023-10-30 01:45:00,SystemResetWarning,0839.1,5.00,000.00,020.9,019.9,000.0,029.2,022.2,10.4,0000.1,0010.33,0008.54,0008.35
2023-10-30 01:46:00,SystemResetWarning,0839.1,5.01,000.00,020.9,019.8,000.0,029.2,022.2,10.4,0000.4,0010.22,0008.49,0008.30
2023-10-30 01:47:00,SystemResetWarning,0839.1,5.01,000.00,020.8,019.7,000.0,029.2,022.2,10.4,0000.5,0010.17,0008.45,0008.27
2023-10-30 01:48:00,SystemResetWarning,0839.1,5.00,000.00,020.8,019.7,000.0,029.2,022.2,10.4,-000.2,0010.12,0008.39,0008.22
2023-10-30 01:49:00,SystemResetWarning,0839.1,5.00,000.00,020.8,019.6,000.0,029.2,022.1,10.3,-000.7,0010.03,0008.29,0008.12
2023-10-30 01:50:00,SystemResetWarning,0839.1,5.00,000.00,020.8,019.5,000.0,029.2,022.1,10.3,-000.8,0009.97,0008.20,0008.02
2023-10-30 01:51:00,SystemResetWarning,0839.1,5.00,000.00,020.7,019.5,000.0,029.2,022.1,10.3,-000.3,0009.89,0008.10,0007.93
2023-10-30 01:52:00,SystemResetWarning,0839.1,5.00,000.00,020.7,019.5,000.0,029.2,022.1,10.3,0000.3,0009.81,0008.02,0007.85
2023-10-30 01:53:00,SystemResetWarning,0839.2,5.01,000.00,020.8,020.2,000.0,029.1,022.6,10.2,0000.7,0009.96,0007.92,0007.73
2023-10-30 01:54:00,SystemResetWarning,0839.2,5.00,000.00,021.0,021.0,000.0,029.1,022.9,10.2,0000.5,0010.00,0007.84,0007.64
2023-10-30 01:55:00,SystemResetWarning,0839.2,4.98,000.00,021.0,021.1,000.0,029.1,022.9,10.1,0002.0,0009.91,0007.76,0007.56
2023-10-30 01:56:00,SystemResetWarning,0839.2,5.00,000.00,021.0,020.9,000.0,029.2,022.7,10.2,0002.0,0009.79,0007.68,0007.50
2023-10-30 01:57:00,SystemResetWarning,0839.2,5.01,000.00,021.0,020.7,000.0,029.2,022.6,10.2,0001.8,0009.83,0007.65,0007.46
2023-10-30 01:58:00,SystemResetWarning,0839.1,5.00,000.00,021.0,020.5,000.0,029.3,022.5,10.2,0002.2,0009.88,0007.65,0007.45
2023-10-30 01:59:00,SystemResetWarning,0839.1,5.00,000.00,021.0,020.3,000.0,029.3,022.4,10.2,0002.6,0009.96,0007.67,0007.45
